Retour au catalogue

SL-12 R/B(2)

ActifGEO
NORAD 13899·ROCKET BODY·🇷🇺 Russia

Lancé Mar 15, 1982 depuis Baikonur Cosmodrome

Loading…

TLE

FraisSource: Space-Track

Époque: Sep 14, 2026, 14:20 UTC

1 13899U 82020F   26257.59772111 -.00000140  00000-0  00000-0 0  9993
2 13899   8.1095 299.3004 0026082 211.5636 172.1650  0.98636048121868

Suivez SL-12 R/B(2) en temps réel avec AllMySat

Download on the App Store